ISR178 LYTV-LLBG

Flight info

Callsign ISR178
Flight time N/A
Altitude 37000
Route LASTI DCT LEBGA DCT PETAK DCT TRN DCT PINDO DCT AKINA DCT VANZA DCT PIKOG L609 ZUKKO
Aircraft A320/M-SDE3FGHIRWY/LB1

Departure

Time 2026-05-07 17:56
Airport Tivat Airport (LYTV)

Arrival

Time N/A
Airport Ben Gurion International Airport (LLBG)
Time Latitude Longitude Altitude Speed Heading
2026-05-07 17:24 42.41304 18.71595 -6 ft 0 kts 160°
2026-05-07 17:49 42.41300 18.71596 -2 ft 2 kts 160°
2026-05-07 17:50 42.41271 18.71598 -3 ft 7 kts 197°
2026-05-07 17:50 42.41230 18.71615 -2 ft 6 kts 143°
2026-05-07 17:50 42.41187 18.71665 -3 ft 11 kts 139°
2026-05-07 17:50 42.41115 18.71747 -4 ft 15 kts 139°
2026-05-07 17:51 42.41039 18.71838 -4 ft 13 kts 141°
2026-05-07 17:51 42.40973 18.71814 -3 ft 7 kts 227°
2026-05-07 17:51 42.40923 18.71795 -1 ft 11 kts 158°
2026-05-07 17:51 42.40843 18.71885 -4 ft 18 kts 138°
2026-05-07 17:52 42.40736 18.72014 -5 ft 23 kts 139°
2026-05-07 17:52 42.40604 18.72167 -6 ft 27 kts 139°
2026-05-07 17:52 42.40461 18.72337 -5 ft 27 kts 139°
2026-05-07 17:52 42.40320 18.72502 -3 ft 27 kts 139°
2026-05-07 17:53 42.40178 18.72670 -3 ft 27 kts 139°
2026-05-07 17:53 42.40033 18.72842 -5 ft 28 kts 139°
2026-05-07 17:53 42.39887 18.73014 -5 ft 27 kts 138°
2026-05-07 17:53 42.39764 18.73162 -3 ft 19 kts 139°
2026-05-07 17:54 42.39673 18.73251 -3 ft 15 kts 155°
2026-05-07 17:54 42.39635 18.73298 -3 ft 3 kts 33°
2026-05-07 17:54 42.39659 18.73287 -3 ft 5 kts 321°
2026-05-07 17:54 42.39677 18.73266 -2 ft 6 kts 318°
2026-05-07 17:55 42.39910 18.72990 -4 ft 86 kts 319°
2026-05-07 17:55 42.40547 18.72235 -4 ft 153 kts 319°
2026-05-07 17:56 42.41615 18.67244 2378 ft 161 kts 208°
2026-05-07 17:56 42.40708 18.66367 2879 ft 161 kts 210°
2026-05-07 17:56 42.39811 18.65472 3326 ft 163 kts 210°
2026-05-07 17:57 42.38842 18.64508 3531 ft 185 kts 211°
2026-05-07 17:57 42.38111 18.63779 3678 ft 200 kts 212°